Location: Unspecified
(0.0000°N, 0.0000°E)
Time: 12:04:06
(UTC+00:00)

deb r/b Ablestar - Pass Details

Date: 19 April 2026
Orbit: 834 x 1371 km, 65.9° (Epoch: 10 May)

Event Time Altitude Azimuth Distance (km) Brightness Sun altitude
Exits shadow 02:53:03 16° 128° (SE) 2,611 ? -45.4°
Maximum altitude 02:55:00 18° 108° (ESE) 2,553 ? -44.9°
Drops below altitude 10° 02:59:54 10° 69° (ENE) 3,228 ? -43.8°
Sets 03:03:54 0° 52° (NE) 4,276 ? -42.8°
